Regional Weather Roundup
Issued by NWS Cleveland, OH

Home | Current Version | Previous Version | Graphics & Text | Print | Product List | Glossary On
Versions: 1 2 3 4 5 6 7 8 9 10 11 12 13 14 15 16 17 18 19 20 21 22 23 24 25 26 27 28 29 30 31 32 33 34 35 36 37 38 39 40 41 42 43 44 45 46 47 48 49 50
000
ASUS41 KCLE 221100
RWRCLE
OHIO REGIONAL WEATHER ROUNDUP
NATIONAL WEATHER SERVICE WILMINGTON, OH
700 AM EDT TUE MAY 22 2018

NOTE: "FAIR" INDICATES FEW OR NO CLOUDS BELOW 12,000 FEET WITH NO
SIGNIFICANT WEATHER AND/OR OBSTRUCTIONS TO VISIBILITY.

OHZ001>008-015>018-024>027-034-035-043-044-221200-
   NORTHWEST OHIO

CITY           SKY/WX    TMP DP  RH WIND       PRES   REMARKS
DEFIANCE       CLOUDY    56  54  93 CALM      29.99S FOG
FINDLAY        MOCLDY    66  64  93 S7        29.99R
TOLEDO EXPRESS MOCLDY    57  57 100 W3        29.98R FOG
TOLEDO EXEC    MOCLDY    58  55  90 CALM      29.99S FOG
LIMA           CLOUDY    65  65 100 SW8       30.01R FOG
$$

OHZ009>014-019>023-028>033-038-089-221200-
   NORTHEAST OHIO

CITY           SKY/WX    TMP DP  RH WIND       PRES   REMARKS
CLE-HOPKINS    MOCLDY    66  63  90 S7        30.01R
CLE-LAKEFRONT  MOCLDY    67  62  84 S14       29.98R
CUY CO. ARPT   MOCLDY    68  64  88 S12       30.00
LORAIN-ELYRIA  CLOUDY    64  59  83 VRB6      30.00S
ASHTABULA      LGT RAIN  64  64 100 S8        30.01R
AKRON-CANTON   CLOUDY    65  62  90 S9        30.03R
WOOSTER        NOT AVBL
MANSFIELD      MOCLDY    64  64 100 S9        30.03R
YOUNGSTOWN     CLOUDY    64  63  96 S5        30.03R
$$

OHZ042-051>053-060>062-070>072-077>081-221200-
  SOUTHWEST OHIO

CITY           SKY/WX    TMP DP  RH WIND       PRES   REMARKS
CINC-COVINGTON MOCLDY    67  65  93 S7        30.03R
CINC-LUNKEN    CLOUDY    67  67 100 SW3       30.04R
HAMILTON       CLOUDY    68  68 100 CALM      30.04R
DAYTON         NOT AVBL
WRIGHT-PAT AFB NOT AVBL
DAYTON GENERAL CLOUDY    68  66  93 VRB3      30.03R FOG
WILMINGTON     CLOUDY    66  66 100 SW6       30.04R
$$

OHZ036-037-039>041-045>050-054>059-063>069-073>076-082>088-221200-
  CENTRAL AND SOUTHEAST OHIO

CITY           SKY/WX    TMP DP  RH WIND       PRES   REMARKS
COLUMBUS       CLOUDY    67  65  93 S5        30.03R
OSU AIRPORT    CLOUDY    67  65  93 S6        30.03R
BOLTON FIELD   NOT AVBL
RICKENBACK AFB NOT AVBL
NEWARK         CLOUDY    67  65  93 S6        30.03R
MARION         CLOUDY    66  64  93 SW9       30.03R
LANCASTER      MOCLDY    66  65  96 CALM      30.04R
ZANESVILLE     LGT RAIN  65  63  93 S6        30.03F
NEW PHILLY     MOCLDY    64  63  96 SE3       30.04R
$$




USA.gov is the U.S. government's official web portal to all federal, state and local government web resources and services.